Tracking 33188 objects as of 11-Feb-2026
HD Live streaming from Space Station
objects crossing your sky now

STARLINK-30477

Track STARLINK-30477 now!
10-day predictions
STARLINK-30477 is classified as:


NORAD ID: 57912
Int'l Code: 2023-146X
Perigee: 565.7 km
Apogee: 566.7 km
Inclination: 43.0 °
Period: 95.8 minutes
Semi major axis: 6937 km
RCS: Unknown
Launch date: September 20, 2023
Source: United States (US)
Launch site: AIR FORCE EASTERN TEST RANGE (AFETR)
Your satellite tracking list
Your tracking list is empty




NASA's NSSDC Master Catalog

Two Line Element Set (TLE):
1 57912U 23146X   26041.25028125 -.00001404  00000-0 -88912-4 0  9991
2 57912  42.9981 102.0094 0000718 227.8456 132.2325 15.02534723132944
Source of the keplerian elements: AFSPC